Time,TemperatureF,DewpointF,PressureIn,WindDirection,WindDirectionDegrees,WindSpeedMPH,WindSpeedGustMPH,Humidity,HourlyPrecipIn,Conditions,Clouds,dailyrainin,SolarRadiationWatts/m^2,SoftwareType,DateUTC
2013-08-22 00:00:00,68.9,59.5,29.92,NNW,332,0.0,0.0,72,0.00,,,0.00,0,Wunderground v.1.15,2013-08-22 05:00:00,
2013-08-22 00:05:00,68.8,59.4,29.92,NNW,332,0.0,0.0,72,0.00,,,0.00,0,Wunderground v.1.15,2013-08-22 05:05:00,
2013-08-22 00:15:00,68.8,59.4,29.92,NNW,332,0.0,0.0,72,0.00,,,0.00,0,Wunderground v.1.15,2013-08-22 05:15:00,
2013-08-22 00:20:00,68.9,59.5,29.94,NNW,331,0.0,0.0,72,0.00,,,0.00,0,Wunderground v.1.15,2013-08-22 05:20:00,
2013-08-22 00:25:00,68.8,59.4,29.94,NNW,332,0.0,0.0,72,0.00,,,0.00,0,Wunderground v.1.15,2013-08-22 05:25:00,
2013-08-22 00:30:00,68.7,59.3,29.94,NNW,332,0.0,0.0,72,0.00,,,0.00,0,Wunderground v.1.15,2013-08-22 05:30:00,
2013-08-22 00:35:00,68.5,59.1,29.95,NNW,331,0.0,0.0,72,0.00,,,0.00,0,Wunderground v.1.15,2013-08-22 05:35:00,
2013-08-22 00:40:00,68.4,59.0,29.95,NNW,331,0.0,0.0,72,0.00,,,0.00,0,Wunderground v.1.15,2013-08-22 05:40:00,
2013-08-22 00:45:00,68.2,59.2,29.95,NNW,332,0.0,0.0,73,0.00,,,0.00,0,Wunderground v.1.15,2013-08-22 05:45:00,
2013-08-22 00:50:00,68.1,59.1,29.96,NNW,332,0.0,0.0,73,0.00,,,0.00,0,Wunderground v.1.15,2013-08-22 05:50:00,
2013-08-22 00:55:00,67.9,58.9,29.96,NNW,331,0.0,0.0,73,0.00,,,0.00,0,Wunderground v.1.15,2013-08-22 05:55:00,
2013-08-22 01:05:00,67.7,58.7,29.96,NNW,332,0.0,0.0,73,0.00,,,0.00,0,Wunderground v.1.15,2013-08-22 06:05:00,
2013-08-22 01:15:00,67.7,58.7,29.96,NNW,331,0.0,0.0,73,0.00,,,0.00,0,Wunderground v.1.15,2013-08-22 06:15:00,
2013-08-22 01:20:00,67.9,58.9,29.96,NNW,332,0.0,0.0,73,0.00,,,0.00,0,Wunderground v.1.15,2013-08-22 06:20:00,
2013-08-22 01:25:00,68.0,59.0,29.96,NNW,332,0.0,0.0,73,0.00,,,0.00,0,Wunderground v.1.15,2013-08-22 06:25:00,
2013-08-22 01:30:00,68.0,58.6,29.96,NNW,332,0.0,0.0,72,0.00,,,0.00,0,Wunderground v.1.15,2013-08-22 06:30:00,
2013-08-22 01:40:00,67.8,58.4,29.96,NNW,332,0.0,0.0,72,0.00,,,0.00,0,Wunderground v.1.15,2013-08-22 06:40:00,
2013-08-22 01:45:00,67.7,58.7,29.96,NNW,332,0.0,0.0,73,0.00,,,0.00,0,Wunderground v.1.15,2013-08-22 06:45:00,
2013-08-22 01:50:00,67.5,58.5,29.96,NNW,331,0.0,0.0,73,0.00,,,0.00,0,Wunderground v.1.15,2013-08-22 06:50:00,
2013-08-22 01:55:00,67.3,58.3,29.96,NNW,331,0.0,0.0,73,0.00,,,0.00,0,Wunderground v.1.15,2013-08-22 06:55:00,
2013-08-22 02:00:00,67.1,58.5,29.96,NNW,332,0.0,0.0,74,0.00,,,0.00,0,Wunderground v.1.15,2013-08-22 07:00:00,
2013-08-22 02:05:00,66.7,58.1,29.97,NNW,331,0.0,0.0,74,0.00,,,0.00,0,Wunderground v.1.15,2013-08-22 07:05:00,
2013-08-22 02:15:00,66.3,58.5,29.97,NNW,332,0.0,0.0,76,0.00,,,0.00,0,Wunderground v.1.15,2013-08-22 07:15:00,
2013-08-22 02:20:00,66.1,58.3,29.97,NNW,332,0.0,0.0,76,0.00,,,0.00,0,Wunderground v.1.15,2013-08-22 07:20:00,
2013-08-22 02:25:00,66.0,58.2,29.97,NNW,332,0.0,0.0,76,0.00,,,0.00,0,Wunderground v.1.15,2013-08-22 07:25:00,
2013-08-22 02:30:00,65.8,58.0,29.97,NNW,332,0.0,0.0,76,0.00,,,0.00,0,Wunderground v.1.15,2013-08-22 07:30:00,
2013-08-22 02:40:00,65.4,58.0,29.97,NNW,331,0.0,0.0,77,0.00,,,0.00,0,Wunderground v.1.15,2013-08-22 07:40:00,
2013-08-22 02:45:00,65.2,57.8,29.97,NNW,331,0.0,0.0,77,0.00,,,0.00,0,Wunderground v.1.15,2013-08-22 07:45:00,
2013-08-22 02:50:00,65.1,58.1,29.97,NNW,332,0.0,0.0,78,0.00,,,0.00,0,Wunderground v.1.15,2013-08-22 07:50:00,
2013-08-22 02:55:00,65.0,58.0,29.97,NNW,331,0.0,0.0,78,0.00,,,0.00,0,Wunderground v.1.15,2013-08-22 07:55:00,
2013-08-22 03:00:00,65.1,58.1,29.97,NNW,332,0.0,0.0,78,0.00,,,0.00,0,Wunderground v.1.15,2013-08-22 08:00:00,
2013-08-22 03:05:00,65.0,58.0,29.97,NNW,331,0.0,0.0,78,0.00,,,0.00,0,Wunderground v.1.15,2013-08-22 08:05:00,
2013-08-22 03:15:00,64.9,57.9,29.97,NNW,331,0.0,0.0,78,0.00,,,0.00,0,Wunderground v.1.15,2013-08-22 08:15:00,
2013-08-22 03:20:00,64.8,57.8,29.97,NNW,331,0.0,0.0,78,0.00,,,0.00,0,Wunderground v.1.15,2013-08-22 08:20:00,
2013-08-22 03:25:00,64.6,57.9,29.97,NNW,331,0.0,0.0,79,0.00,,,0.00,0,Wunderground v.1.15,2013-08-22 08:25:00,
2013-08-22 03:30:00,64.6,57.9,29.97,NNW,331,0.0,0.0,79,0.00,,,0.00,0,Wunderground v.1.15,2013-08-22 08:30:00,
2013-08-22 03:35:00,64.5,57.8,29.98,NNW,332,0.0,0.0,79,0.00,,,0.00,0,Wunderground v.1.15,2013-08-22 08:35:00,
2013-08-22 03:45:00,64.3,57.6,29.98,NNW,332,0.0,0.0,79,0.00,,,0.00,0,Wunderground v.1.15,2013-08-22 08:45:00,
2013-08-22 03:50:00,64.3,57.6,29.98,NNW,331,0.0,0.0,79,0.00,,,0.00,0,Wunderground v.1.15,2013-08-22 08:50:00,
2013-08-22 03:55:00,64.2,57.2,29.98,NNW,331,0.0,0.0,78,0.00,,,0.00,0,Wunderground v.1.15,2013-08-22 08:55:00,
2013-08-22 04:00:00,64.2,57.5,29.98,NNW,331,0.0,0.0,79,0.00,,,0.00,0,Wunderground v.1.15,2013-08-22 09:00:00,
2013-08-22 04:05:00,64.2,57.2,29.99,NNW,331,0.0,0.0,78,0.00,,,0.00,0,Wunderground v.1.15,2013-08-22 09:05:00,
2013-08-22 04:15:00,64.3,57.3,29.99,NNW,332,0.0,0.0,78,0.00,,,0.00,0,Wunderground v.1.15,2013-08-22 09:15:00,
2013-08-22 04:20:00,64.4,57.0,30.00,NNW,331,0.0,0.0,77,0.00,,,0.00,0,Wunderground v.1.15,2013-08-22 09:20:00,
2013-08-22 04:25:00,64.5,57.1,30.00,NNW,331,0.0,0.0,77,0.00,,,0.00,0,Wunderground v.1.15,2013-08-22 09:25:00,
2013-08-22 04:35:00,64.5,56.8,30.00,NNW,332,0.0,0.0,76,0.00,,,0.00,0,Wunderground v.1.15,2013-08-22 09:35:00,
2013-08-22 04:40:00,64.5,56.8,30.00,NNW,332,0.0,0.0,76,0.00,,,0.00,0,Wunderground v.1.15,2013-08-22 09:40:00,
2013-08-22 04:50:00,64.9,56.8,30.00,NNW,334,2.0,2.0,75,0.00,,,0.00,0,Wunderground v.1.15,2013-08-22 09:50:00,
2013-08-22 04:55:00,65.0,56.5,30.00,North,11,1.0,2.0,74,0.00,,,0.00,0,Wunderground v.1.15,2013-08-22 09:55:00,
2013-08-22 05:00:00,65.1,56.6,30.00,North,11,0.0,1.0,74,0.00,,,0.00,0,Wunderground v.1.15,2013-08-22 10:00:00,
2013-08-22 05:05:00,65.0,56.1,30.00,North,11,1.0,2.0,73,0.00,,,0.00,0,Wunderground v.1.15,2013-08-22 10:05:00,
2013-08-22 05:15:00,65.0,55.8,30.00,North,9,1.0,3.0,72,0.00,,,0.00,0,Wunderground v.1.15,2013-08-22 10:15:00,
2013-08-22 05:20:00,65.2,55.6,30.00,NNE,14,2.0,3.0,71,0.00,,,0.00,0,Wunderground v.1.15,2013-08-22 10:20:00,
2013-08-22 05:25:00,65.2,55.2,30.00,NNE,15,2.0,3.0,70,0.00,,,0.00,0,Wunderground v.1.15,2013-08-22 10:25:00,
2013-08-22 05:30:00,65.4,55.0,30.00,NNE,18,3.0,3.0,69,0.00,,,0.00,0,Wunderground v.1.15,2013-08-22 10:30:00,
2013-08-22 05:35:00,65.4,54.6,30.00,North,360,3.0,3.0,68,0.00,,,0.00,0,Wunderground v.1.15,2013-08-22 10:35:00,
2013-08-22 05:40:00,65.5,54.2,30.00,North,360,2.0,2.0,67,0.00,,,0.00,0,Wunderground v.1.15,2013-08-22 10:40:00,
2013-08-22 05:45:00,65.5,53.8,30.00,NNE,14,3.0,3.0,66,0.00,,,0.00,0,Wunderground v.1.15,2013-08-22 10:45:00,
2013-08-22 07:30:00,64.6,51.7,30.02,NNE,32,2.0,3.0,63,0.00,,,0.00,65,Wunderground v.1.15,2013-08-22 12:30:00,
2013-08-22 07:35:00,64.6,51.3,30.03,North,5,2.0,3.0,62,0.00,,,0.00,56,Wunderground v.1.15,2013-08-22 12:35:00,
2013-08-22 07:40:00,64.6,51.3,30.03,North,5,3.0,3.0,62,0.00,,,0.00,58,Wunderground v.1.15,2013-08-22 12:40:00,
2013-08-22 07:50:00,65.2,51.8,30.04,NNE,22,2.0,2.0,62,0.00,,,0.00,160,Wunderground v.1.15,2013-08-22 12:50:00,
2013-08-22 07:55:00,65.6,51.3,30.04,NNE,28,2.0,3.0,60,0.00,,,0.00,167,Wunderground v.1.15,2013-08-22 12:55:00,
2013-08-22 08:00:00,66.0,51.7,30.04,NE,37,2.0,3.0,60,0.00,,,0.00,225,Wunderground v.1.15,2013-08-22 13:00:00,
2013-08-22 08:05:00,66.3,51.5,30.04,ENE,59,2.0,3.0,59,0.00,,,0.00,95,Wunderground v.1.15,2013-08-22 13:05:00,
2013-08-22 08:15:00,66.2,51.4,30.04,North,355,1.0,1.0,59,0.00,,,0.00,130,Wunderground v.1.15,2013-08-22 13:15:00,
2013-08-22 08:20:00,66.2,51.9,30.05,North,355,0.0,0.0,60,0.00,,,0.00,202,Wunderground v.1.15,2013-08-22 13:20:00,
2013-08-22 08:25:00,66.5,52.2,30.05,North,355,0.0,2.0,60,0.00,,,0.00,271,Wunderground v.1.15,2013-08-22 13:25:00,
2013-08-22 08:30:00,66.8,52.0,30.05,East,94,1.0,7.0,59,0.00,,,0.00,158,Wunderground v.1.15,2013-08-22 13:30:00,
2013-08-22 08:35:00,66.9,51.6,30.06,East,81,1.0,7.0,58,0.00,,,0.00,158,Wunderground v.1.15,2013-08-22 13:35:00,
2013-08-22 08:40:00,66.9,52.1,30.06,East,94,1.0,2.0,59,0.00,,,0.00,165,Wunderground v.1.15,2013-08-22 13:40:00,
2013-08-22 08:45:00,67.0,52.2,30.06,ENE,76,1.0,2.0,59,0.00,,,0.00,200,Wunderground v.1.15,2013-08-22 13:45:00,
2013-08-22 08:55:00,67.4,51.6,30.06,North,355,1.0,3.0,57,0.00,,,0.00,148,Wunderground v.1.15,2013-08-22 13:55:00,
2013-08-22 09:00:00,67.4,52.1,30.06,North,355,1.0,1.0,58,0.00,,,0.00,165,Wunderground v.1.15,2013-08-22 14:00:00,
2013-08-22 09:05:00,67.6,51.8,30.05,NNE,30,1.0,2.0,57,0.00,,,0.00,155,Wunderground v.1.15,2013-08-22 14:05:00,
2013-08-22 09:15:00,68.5,53.6,30.05,North,355,1.0,1.0,59,0.00,,,0.00,443,Wunderground v.1.15,2013-08-22 14:15:00,
2013-08-22 09:20:00,69.7,53.3,30.05,North,10,1.0,2.0,56,0.00,,,0.00,461,Wunderground v.1.15,2013-08-22 14:20:00,
2013-08-22 09:25:00,70.4,53.0,30.05,North,355,2.0,2.0,54,0.00,,,0.00,476,Wunderground v.1.15,2013-08-22 14:25:00,
2013-08-22 09:30:00,70.8,53.3,30.05,North,360,2.0,2.0,54,0.00,,,0.00,469,Wunderground v.1.15,2013-08-22 14:30:00,
2013-08-22 09:35:00,71.3,53.3,30.05,North,351,2.0,2.0,53,0.00,,,0.00,496,Wunderground v.1.15,2013-08-22 14:35:00,
2013-08-22 09:40:00,71.5,52.4,30.05,North,355,2.0,4.0,51,0.00,,,0.00,504,Wunderground v.1.15,2013-08-22 14:40:00,
2013-08-22 09:45:00,71.5,52.9,30.05,North,11,3.0,4.0,52,0.00,,,0.00,547,Wunderground v.1.15,2013-08-22 14:45:00,
2013-08-22 09:55:00,72.6,52.9,30.05,NNW,343,2.0,4.0,50,0.00,,,0.00,244,Wunderground v.1.15,2013-08-22 14:55:00,
2013-08-22 10:05:00,72.3,52.1,30.05,NNE,19,3.0,4.0,49,0.00,,,0.00,585,Wunderground v.1.15,2013-08-22 15:05:00,
2013-08-22 10:15:00,73.6,53.8,30.05,NW,317,2.0,5.0,50,0.00,,,0.00,587,Wunderground v.1.15,2013-08-22 15:15:00,
2013-08-22 10:25:00,74.2,52.7,30.05,NNE,17,2.0,4.0,47,0.00,,,0.00,615,Wunderground v.1.15,2013-08-22 15:25:00,
2013-08-22 10:30:00,74.7,53.1,30.05,North,5,2.0,2.0,47,0.00,,,0.00,629,Wunderground v.1.15,2013-08-22 15:30:00,
2013-08-22 10:35:00,75.0,52.8,30.05,NNE,13,2.0,2.0,46,0.00,,,0.00,647,Wunderground v.1.15,2013-08-22 15:35:00,
2013-08-22 10:40:00,75.3,53.7,30.05,NNW,338,2.0,4.0,47,0.00,,,0.00,638,Wunderground v.1.15,2013-08-22 15:40:00,
2013-08-22 10:45:00,75.6,51.5,30.05,North,5,2.0,4.0,43,0.00,,,0.00,647,Wunderground v.1.15,2013-08-22 15:45:00,
2013-08-22 10:50:00,75.8,51.7,30.05,ENE,74,3.0,4.0,43,0.00,,,0.00,656,Wunderground v.1.15,2013-08-22 15:50:00,
2013-08-22 11:00:00,76.5,52.3,30.05,NNE,24,2.0,2.0,43,0.00,,,0.00,680,Wunderground v.1.15,2013-08-22 16:00:00,
2013-08-22 11:05:00,76.9,53.9,30.05,NNE,22,2.0,2.0,45,0.00,,,0.00,689,Wunderground v.1.15,2013-08-22 16:05:00,
2013-08-22 11:15:00,77.4,53.1,30.05,North,360,2.0,2.0,43,0.00,,,0.00,705,Wunderground v.1.15,2013-08-22 16:15:00,
2013-08-22 11:20:00,77.7,51.5,30.05,NNE,13,2.0,3.0,40,0.00,,,0.00,712,Wunderground v.1.15,2013-08-22 16:20:00,
2013-08-22 11:25:00,77.9,52.3,30.05,NE,49,3.0,3.0,41,0.00,,,0.00,719,Wunderground v.1.15,2013-08-22 16:25:00,
2013-08-22 11:30:00,78.1,52.5,30.05,NNE,16,3.0,3.0,41,0.00,,,0.00,726,Wunderground v.1.15,2013-08-22 16:30:00,
2013-08-22 11:35:00,78.3,52.0,30.05,NW,323,2.0,3.0,40,0.00,,,0.00,735,Wunderground v.1.15,2013-08-22 16:35:00,
2013-08-22 11:40:00,78.4,53.4,30.05,North,355,2.0,2.0,42,0.00,,,0.00,744,Wunderground v.1.15,2013-08-22 16:40:00,
2013-08-22 11:45:00,78.5,52.8,30.05,NNE,22,3.0,3.0,41,0.00,,,0.00,749,Wunderground v.1.15,2013-08-22 16:45:00,
2013-08-22 11:50:00,78.7,53.0,30.05,NW,315,3.0,3.0,41,0.00,,,0.00,754,Wunderground v.1.15,2013-08-22 16:50:00,
2013-08-22 11:55:00,78.9,51.1,30.05,NNE,17,3.0,4.0,38,0.00,,,0.00,759,Wunderground v.1.15,2013-08-22 16:55:00,
2013-08-22 12:05:00,78.7,51.7,30.05,North,11,3.0,4.0,39,0.00,,,0.00,770,Wunderground v.1.15,2013-08-22 17:05:00,
2013-08-22 12:15:00,79.2,52.1,30.05,North,360,2.0,3.0,39,0.00,,,0.00,779,Wunderground v.1.15,2013-08-22 17:15:00,
2013-08-22 12:20:00,79.4,53.0,30.04,North,11,2.0,3.0,40,0.00,,,0.00,782,Wunderground v.1.15,2013-08-22 17:20:00,
2013-08-22 12:25:00,79.3,51.5,30.04,North,355,3.0,7.0,38,0.00,,,0.00,788,Wunderground v.1.15,2013-08-22 17:25:00,
2013-08-22 12:35:00,79.5,50.9,30.04,NNW,344,3.0,4.0,37,0.00,,,0.00,793,Wunderground v.1.15,2013-08-22 17:35:00,
2013-08-22 12:40:00,79.7,53.2,30.04,NNE,19,3.0,3.0,40,0.00,,,0.00,795,Wunderground v.1.15,2013-08-22 17:40:00,
2013-08-22 12:45:00,79.8,53.3,30.04,NNE,15,2.0,3.0,40,0.00,,,0.00,800,Wunderground v.1.15,2013-08-22 17:45:00,
2013-08-22 12:55:00,80.3,53.1,30.04,NNE,30,3.0,3.0,39,0.00,,,0.00,800,Wunderground v.1.15,2013-08-22 17:55:00,
2013-08-22 13:00:00,80.4,53.2,30.04,NNE,31,3.0,3.0,39,0.00,,,0.00,803,Wunderground v.1.15,2013-08-22 18:00:00,
2013-08-22 13:05:00,80.5,51.8,30.04,NNE,14,3.0,3.0,37,0.00,,,0.00,803,Wunderground v.1.15,2013-08-22 18:05:00,
2013-08-22 13:15:00,80.9,52.9,30.04,North,355,2.0,3.0,38,0.00,,,0.00,809,Wunderground v.1.15,2013-08-22 18:15:00,
2013-08-22 13:25:00,81.4,54.1,30.04,NNW,342,2.0,4.0,39,0.00,,,0.00,809,Wunderground v.1.15,2013-08-22 18:25:00,
2013-08-22 13:30:00,81.4,52.6,30.04,North,9,3.0,3.0,37,0.00,,,0.00,810,Wunderground v.1.15,2013-08-22 18:30:00,
2013-08-22 13:40:00,81.7,54.3,30.04,NNW,345,2.0,2.0,39,0.00,,,0.00,796,Wunderground v.1.15,2013-08-22 18:40:00,
2013-08-22 13:45:00,81.9,55.9,30.04,WNW,292,2.0,3.0,41,0.00,,,0.00,803,Wunderground v.1.15,2013-08-22 18:45:00,
2013-08-22 13:55:00,82.5,53.6,30.03,NNE,18,2.0,3.0,37,0.00,,,0.00,800,Wunderground v.1.15,2013-08-22 18:55:00,
2013-08-22 14:00:00,82.6,52.9,30.03,West,281,2.0,4.0,36,0.00,,,0.00,802,Wunderground v.1.15,2013-08-22 19:00:00,
2013-08-22 14:05:00,82.7,53.0,30.03,North,9,2.0,4.0,36,0.00,,,0.00,800,Wunderground v.1.15,2013-08-22 19:05:00,
2013-08-22 14:15:00,82.8,53.1,30.03,NNE,25,2.0,4.0,36,0.00,,,0.00,789,Wunderground v.1.15,2013-08-22 19:15:00,
2013-08-22 14:20:00,82.9,54.0,30.03,NW,319,2.0,2.0,37,0.00,,,0.00,784,Wunderground v.1.15,2013-08-22 19:20:00,
2013-08-22 14:25:00,83.0,52.5,30.03,NNE,22,2.0,2.0,35,0.00,,,0.00,773,Wunderground v.1.15,2013-08-22 19:25:00,
2013-08-22 14:30:00,83.0,52.5,30.03,NNE,33,2.0,2.0,35,0.00,,,0.00,777,Wunderground v.1.15,2013-08-22 19:30:00,
2013-08-22 14:35:00,83.0,54.8,30.03,ESE,106,2.0,3.0,38,0.00,,,0.00,772,Wunderground v.1.15,2013-08-22 19:35:00,
2013-08-22 14:45:00,83.4,56.5,30.03,NNW,331,2.0,3.0,40,0.00,,,0.00,758,Wunderground v.1.15,2013-08-22 19:45:00,
2013-08-22 14:50:00,83.7,55.4,30.02,NE,40,2.0,2.0,38,0.00,,,0.00,729,Wunderground v.1.15,2013-08-22 19:50:00,
2013-08-22 14:55:00,83.8,54.7,30.02,North,355,1.0,2.0,37,0.00,,,0.00,744,Wunderground v.1.15,2013-08-22 19:55:00,
2013-08-22 15:00:00,83.7,53.1,30.02,West,273,2.0,2.0,35,0.00,,,0.00,737,Wunderground v.1.15,2013-08-22 20:00:00,
2013-08-22 15:05:00,83.7,56.8,30.02,WNW,283,1.0,4.0,40,0.00,,,0.00,729,Wunderground v.1.15,2013-08-22 20:05:00,
2013-08-22 15:15:00,83.6,54.6,30.02,NW,306,1.0,4.0,37,0.00,,,0.00,715,Wunderground v.1.15,2013-08-22 20:15:00,
2013-08-22 15:20:00,83.6,54.6,30.03,NNE,18,1.0,2.0,37,0.00,,,0.00,705,Wunderground v.1.15,2013-08-22 20:20:00,
2013-08-22 15:25:00,83.8,54.0,30.03,NNE,15,1.0,2.0,36,0.00,,,0.00,698,Wunderground v.1.15,2013-08-22 20:25:00,
2013-08-22 15:30:00,83.6,54.6,30.03,NNE,23,1.0,1.0,37,0.00,,,0.00,687,Wunderground v.1.15,2013-08-22 20:30:00,
2013-08-22 15:35:00,84.0,54.9,30.02,North,355,1.0,2.0,37,0.00,,,0.00,675,Wunderground v.1.15,2013-08-22 20:35:00,
2013-08-22 15:45:00,84.1,55.0,30.02,NNW,330,2.0,5.0,37,0.00,,,0.00,657,Wunderground v.1.15,2013-08-22 20:45:00,
2013-08-22 15:50:00,83.9,51.7,30.02,North,360,2.0,2.0,33,0.00,,,0.00,647,Wunderground v.1.15,2013-08-22 20:50:00,
2013-08-22 15:55:00,83.9,51.7,30.02,North,355,1.0,2.0,33,0.00,,,0.00,633,Wunderground v.1.15,2013-08-22 20:55:00,
2013-08-22 16:00:00,83.8,52.4,30.02,NNE,19,1.0,1.0,34,0.00,,,0.00,522,Wunderground v.1.15,2013-08-22 21:00:00,
2013-08-22 16:05:00,83.5,53.0,30.02,NNW,339,2.0,3.0,35,0.00,,,0.00,188,Wunderground v.1.15,2013-08-22 21:05:00,
2013-08-22 16:15:00,82.8,54.6,30.02,NW,323,2.0,4.0,38,0.00,,,0.00,162,Wunderground v.1.15,2013-08-22 21:15:00,
2013-08-22 16:20:00,82.6,53.7,30.02,North,360,1.0,1.0,37,0.00,,,0.00,67,Wunderground v.1.15,2013-08-22 21:20:00,
2013-08-22 16:25:00,82.7,53.0,30.02,NNE,13,1.0,3.0,36,0.00,,,0.00,105,Wunderground v.1.15,2013-08-22 21:25:00,
2013-08-22 16:30:00,82.5,54.3,30.02,NNW,334,1.0,3.0,38,0.00,,,0.00,165,Wunderground v.1.15,2013-08-22 21:30:00,
2013-08-22 16:35:00,82.3,54.2,30.02,WNW,298,2.0,3.0,38,0.00,,,0.00,53,Wunderground v.1.15,2013-08-22 21:35:00,
2013-08-22 16:40:00,82.2,54.1,30.02,NNE,28,2.0,2.0,38,0.00,,,0.00,51,Wunderground v.1.15,2013-08-22 21:40:00,
2013-08-22 16:50:00,82.0,55.3,30.02,NNE,13,2.0,2.0,40,0.00,,,0.00,51,Wunderground v.1.15,2013-08-22 21:50:00,
2013-08-22 16:55:00,81.8,54.4,30.02,NNW,327,2.0,2.0,39,0.00,,,0.00,49,Wunderground v.1.15,2013-08-22 21:55:00,
2013-08-22 17:00:00,81.7,55.0,30.02,NNW,338,2.0,4.0,40,0.00,,,0.00,49,Wunderground v.1.15,2013-08-22 22:00:00,
2013-08-22 17:05:00,81.6,54.2,30.02,North,10,2.0,4.0,39,0.00,,,0.00,49,Wunderground v.1.15,2013-08-22 22:05:00,
2013-08-22 17:15:00,81.6,54.2,30.02,NNW,336,1.0,3.0,39,0.00,,,0.00,47,Wunderground v.1.15,2013-08-22 22:15:00,
2013-08-22 17:25:00,81.5,54.2,30.02,NNE,24,1.0,3.0,39,0.00,,,0.00,47,Wunderground v.1.15,2013-08-22 22:25:00,
2013-08-22 17:30:00,81.4,53.4,30.02,North,360,2.0,2.0,38,0.00,,,0.00,54,Wunderground v.1.15,2013-08-22 22:30:00,
2013-08-22 17:40:00,81.3,53.3,30.01,North,351,2.0,3.0,38,0.00,,,0.00,46,Wunderground v.1.15,2013-08-22 22:40:00,
2013-08-22 17:45:00,81.3,54.0,30.01,North,360,1.0,3.0,39,0.00,,,0.00,63,Wunderground v.1.15,2013-08-22 22:45:00,
2013-08-22 17:55:00,81.2,53.2,30.01,North,10,2.0,6.0,38,0.00,,,0.00,42,Wunderground v.1.15,2013-08-22 22:55:00,
2013-08-22 18:00:00,81.1,53.8,30.01,North,355,2.0,2.0,39,0.00,,,0.00,42,Wunderground v.1.15,2013-08-22 23:00:00,
2013-08-22 18:05:00,80.9,53.6,30.01,North,10,2.0,3.0,39,0.00,,,0.00,42,Wunderground v.1.15,2013-08-22 23:05:00,
2013-08-22 18:15:00,80.7,53.4,30.01,North,360,2.0,2.0,39,0.00,,,0.00,40,Wunderground v.1.15,2013-08-22 23:15:00,
2013-08-22 18:25:00,80.5,54.0,30.01,North,360,2.0,3.0,40,0.00,,,0.00,39,Wunderground v.1.15,2013-08-22 23:25:00,
2013-08-22 18:30:00,80.4,53.9,30.01,North,5,1.0,1.0,40,0.00,,,0.00,49,Wunderground v.1.15,2013-08-22 23:30:00,
2013-08-22 18:40:00,80.1,54.3,30.01,North,5,1.0,1.0,41,0.00,,,0.00,37,Wunderground v.1.15,2013-08-22 23:40:00,
2013-08-22 18:45:00,79.9,53.4,30.01,North,360,0.0,1.0,40,0.00,,,0.00,35,Wunderground v.1.15,2013-08-22 23:45:00,
2013-08-22 18:50:00,79.7,53.2,30.01,North,360,1.0,1.0,40,0.00,,,0.00,35,Wunderground v.1.15,2013-08-22 23:50:00,
2013-08-22 18:55:00,79.6,53.8,30.01,North,360,1.0,1.0,41,0.00,,,0.00,33,Wunderground v.1.15,2013-08-22 23:55:00,
2013-08-22 19:00:00,79.3,54.2,30.01,East,86,1.0,2.0,42,0.00,,,0.00,33,Wunderground v.1.15,2013-08-23 00:00:00,
2013-08-22 19:05:00,79.1,52.7,30.01,NNE,20,1.0,2.0,40,0.00,,,0.00,32,Wunderground v.1.15,2013-08-23 00:05:00,
2013-08-22 19:15:00,78.9,53.9,30.01,NNE,20,0.0,1.0,42,0.00,,,0.00,28,Wunderground v.1.15,2013-08-23 00:15:00,
2013-08-22 19:20:00,78.7,53.0,30.01,NNE,20,0.0,2.0,41,0.00,,,0.00,26,Wunderground v.1.15,2013-08-23 00:20:00,
2013-08-22 19:25:00,78.4,54.0,30.01,NNE,19,0.0,2.0,43,0.00,,,0.00,25,Wunderground v.1.15,2013-08-23 00:25:00,
2013-08-22 19:30:00,78.2,53.9,30.01,NNE,20,0.0,0.0,43,0.00,,,0.00,21,Wunderground v.1.15,2013-08-23 00:30:00,
2013-08-22 19:35:00,77.8,54.1,30.01,NNE,20,0.0,0.0,44,0.00,,,0.00,19,Wunderground v.1.15,2013-08-23 00:35:00,
2013-08-22 19:40:00,77.5,53.9,30.01,NNE,20,0.0,0.0,44,0.00,,,0.00,18,Wunderground v.1.15,2013-08-23 00:40:00,
2013-08-22 19:45:00,77.1,54.1,30.01,NNE,19,0.0,0.0,45,0.00,,,0.00,14,Wunderground v.1.15,2013-08-23 00:45:00,
2013-08-22 19:50:00,76.6,54.3,30.01,NNE,19,0.0,0.0,46,0.00,,,0.00,12,Wunderground v.1.15,2013-08-23 00:50:00,
2013-08-22 20:00:00,75.4,53.8,30.01,NNE,19,0.0,0.0,47,0.00,,,0.00,7,Wunderground v.1.15,2013-08-23 01:00:00,
2013-08-22 20:05:00,74.9,53.9,30.02,NNE,20,0.0,0.0,48,0.00,,,0.00,0,Wunderground v.1.15,2013-08-23 01:05:00,
2013-08-22 20:15:00,73.7,53.9,30.02,NNE,20,0.0,0.0,50,0.00,,,0.00,0,Wunderground v.1.15,2013-08-23 01:15:00,
2013-08-22 20:20:00,73.2,54.0,30.02,NNE,20,0.0,0.0,51,0.00,,,0.00,0,Wunderground v.1.15,2013-08-23 01:20:00,
2013-08-22 20:30:00,72.4,54.3,30.02,NNE,19,0.0,0.0,53,0.00,,,0.00,0,Wunderground v.1.15,2013-08-23 01:30:00,
2013-08-22 20:35:00,71.8,53.7,30.02,NNE,20,0.0,0.0,53,0.00,,,0.00,0,Wunderground v.1.15,2013-08-23 01:35:00,
2013-08-22 20:40:00,71.3,53.8,30.02,NNE,20,0.0,0.0,54,0.00,,,0.00,0,Wunderground v.1.15,2013-08-23 01:40:00,
2013-08-22 20:45:00,70.7,54.2,30.02,NNE,20,0.0,0.0,56,0.00,,,0.00,0,Wunderground v.1.15,2013-08-23 01:45:00,
2013-08-22 20:50:00,70.3,53.9,30.03,NNE,20,0.0,0.0,56,0.00,,,0.00,0,Wunderground v.1.15,2013-08-23 01:50:00,
2013-08-22 20:55:00,69.8,53.9,30.03,NNE,19,0.0,0.0,57,0.00,,,0.00,0,Wunderground v.1.15,2013-08-23 01:55:00,
2013-08-22 21:05:00,69.1,54.6,30.03,NNE,19,0.0,0.0,60,0.00,,,0.00,0,Wunderground v.1.15,2013-08-23 02:05:00,
2013-08-22 21:15:00,68.8,54.3,30.03,NNE,19,0.0,0.0,60,0.00,,,0.00,0,Wunderground v.1.15,2013-08-23 02:15:00,
2013-08-22 21:20:00,68.6,55.1,30.04,NNE,20,0.0,0.0,62,0.00,,,0.00,0,Wunderground v.1.15,2013-08-23 02:20:00,
2013-08-22 21:25:00,68.3,55.2,30.04,NNE,20,0.0,0.0,63,0.00,,,0.00,0,Wunderground v.1.15,2013-08-23 02:25:00,
2013-08-22 21:35:00,67.5,54.9,30.04,NNE,20,0.0,0.0,64,0.00,,,0.00,0,Wunderground v.1.15,2013-08-23 02:35:00,
2013-08-22 21:40:00,67.2,54.6,30.04,NNE,20,0.0,0.0,64,0.00,,,0.00,0,Wunderground v.1.15,2013-08-23 02:40:00,
2013-08-22 21:45:00,66.8,54.7,30.04,NNE,19,0.0,0.0,65,0.00,,,0.00,0,Wunderground v.1.15,2013-08-23 02:45:00,
2013-08-22 21:50:00,66.5,54.4,30.04,NNE,20,0.0,0.0,65,0.00,,,0.00,0,Wunderground v.1.15,2013-08-23 02:50:00,
2013-08-22 21:55:00,66.4,54.3,30.04,NNE,20,0.0,0.0,65,0.00,,,0.00,0,Wunderground v.1.15,2013-08-23 02:55:00,
2013-08-22 22:00:00,66.4,53.8,30.04,NNE,20,0.0,0.0,64,0.00,,,0.00,0,Wunderground v.1.15,2013-08-23 03:00:00,
2013-08-22 22:05:00,66.4,53.4,30.04,NNE,19,0.0,0.0,63,0.00,,,0.00,0,Wunderground v.1.15,2013-08-23 03:05:00,
2013-08-22 22:15:00,66.4,53.4,30.04,NNE,20,0.0,0.0,63,0.00,,,0.00,0,Wunderground v.1.15,2013-08-23 03:15:00,
2013-08-22 22:20:00,66.4,53.4,30.04,NNE,20,0.0,0.0,63,0.00,,,0.00,0,Wunderground v.1.15,2013-08-23 03:20:00,
2013-08-22 22:25:00,66.3,53.3,30.04,NNE,19,0.0,0.0,63,0.00,,,0.00,0,Wunderground v.1.15,2013-08-23 03:25:00,
2013-08-22 22:30:00,66.2,53.2,30.04,NNE,20,0.0,0.0,63,0.00,,,0.00,0,Wunderground v.1.15,2013-08-23 03:30:00,
2013-08-22 22:40:00,65.9,52.9,30.04,NNE,19,0.0,0.0,63,0.00,,,0.00,0,Wunderground v.1.15,2013-08-23 03:40:00,
2013-08-22 22:45:00,65.6,53.1,30.04,NNE,20,0.0,0.0,64,0.00,,,0.00,0,Wunderground v.1.15,2013-08-23 03:45:00,
2013-08-22 22:50:00,65.3,52.8,30.05,NNE,20,0.0,0.0,64,0.00,,,0.00,0,Wunderground v.1.15,2013-08-23 03:50:00,
2013-08-22 22:55:00,65.0,52.9,30.05,NNE,20,0.0,0.0,65,0.00,,,0.00,0,Wunderground v.1.15,2013-08-23 03:55:00,
2013-08-22 23:00:00,64.9,53.3,30.05,NNE,20,0.0,0.0,66,0.00,,,0.00,0,Wunderground v.1.15,2013-08-23 04:00:00,
2013-08-22 23:05:00,64.8,53.2,30.05,NNE,20,0.0,0.0,66,0.00,,,0.00,0,Wunderground v.1.15,2013-08-23 04:05:00,
2013-08-22 23:10:00,64.6,53.0,30.05,NNE,20,0.0,0.0,66,0.00,,,0.00,0,Wunderground v.1.15,2013-08-23 04:10:00,
2013-08-22 23:15:00,64.4,52.8,30.05,NNE,20,0.0,0.0,66,0.00,,,0.00,0,Wunderground v.1.15,2013-08-23 04:15:00,
2013-08-22 23:20:00,64.2,52.6,30.05,NNE,19,0.0,0.0,66,0.00,,,0.00,0,Wunderground v.1.15,2013-08-23 04:20:00,
2013-08-22 23:25:00,64.2,53.0,30.05,NNE,19,0.0,0.0,67,0.00,,,0.00,0,Wunderground v.1.15,2013-08-23 04:25:00,
2013-08-22 23:30:00,64.3,53.1,30.05,NNE,20,0.0,0.0,67,0.00,,,0.00,0,Wunderground v.1.15,2013-08-23 04:30:00,
2013-08-22 23:35:00,64.1,52.9,30.05,NNE,20,0.0,0.0,67,0.00,,,0.00,0,Wunderground v.1.15,2013-08-23 04:35:00,
2013-08-22 23:45:00,63.6,52.8,30.05,NNE,20,0.0,0.0,68,0.00,,,0.00,0,Wunderground v.1.15,2013-08-23 04:45:00,
2013-08-22 23:50:00,63.4,52.7,30.06,NNE,20,0.0,0.0,68,0.00,,,0.00,0,Wunderground v.1.15,2013-08-23 04:50:00,
2013-08-22 23:55:00,63.2,52.9,30.06,NNE,20,0.0,0.0,69,0.00,,,0.00,0,Wunderground v.1.15,2013-08-23 04:55:00,